Weather in Urazovo

Russia / Republic of Bashkortostan     54°16′27″N   59°08′13″E
temp.,
°C
wind,
m/s
gust,
m/s
humid.,
%
clouds,
%
prec.,
mm/h
press.,
hPa
HPBL,
m
28 february, sun
sun2823:00−14ese2497100 1.1 1009140
02:00−16e1198100 0.1 100821
05:00−15ne1197100 0.5 100627
08:00−15nne2397100 0.4 100574
11:00−13ne3493100 0.8 1004246
14:00−11ne3492100 0.3 1004316
17:00−11ne3594100 0.7 1004330
20:00−13ne3596100 0.4 1006137
1 march, mon
mon123:00−16nne239790 0.4 100937
02:00−18nne129889 0.0 101120
05:00−17ene119793 0.1 101320
08:00−18ene119894 0.2 101420
11:00−15sse119292 0.3 1016192
14:00−13sse2290100 0.1 1015259
17:00−12sse2293100 0.2 1016222
20:00−15ese119798 0.3 101720
2 march, tue
tue223:00−16sw009798 0.4 101720
02:00−18w119976 0.0 101720
05:00−19wnw119975 0.1 101720
08:00−22w119815 0.0 101620
11:00−16wsw12897 0.0 1014153
14:00−11ssw238830 0.0 1011250
17:00−9ssw488753 0.0 1010290
20:00−11sw489194 0.0 1009171
3 march, wed
wed323:00−11sw599197 0.0 1009366
02:00−13sw51089100 0.0 1007339
05:00−14ssw4895100 0.0 1005212
08:00−13ssw41096100 0.0 1002264
11:00−7ssw51094100 0.1 1001450
14:00−3ssw6991100 0.1 999770
17:00−2ssw5895100 0.4 998591
20:00−6sw469098 0.1 998103
4 march, thu
thu423:00−7wsw468997 0.1 1000116
02:00−10wnw478794 0.0 1000127
05:00−12wnw478797 0.0 1002147
08:00−13wnw368793 0.0 1004126
11:00−8nw6107881 0.0 1005860
14:00−6wnw597431 0.0 10061419
17:00−8wnw5107963 0.1 1008772
20:00−13wsw46850 0.0 101083